Torna al catalogo

FENGYUN 1C DEB

AttivoPO
NORAD 30050·DEBRIS·🇨🇳 China

Lanciato May 10, 1999 da Taiyuan Satellite Launch Center

Loading…

Prossimi Passaggi (prossime 24 ore)

TLE

AggiornatoSource: Space-Track

Epoca: Sep 14, 2026, 12:13 UTC

1 30050U 99025PB  26257.50961898  .00000609  00000-0  49732-3 0  9994
2 30050  96.8196 148.1421 0169392 323.3947 159.2224 13.85629198990208

Traccia FENGYUN 1C DEB in tempo reale con AllMySat

Download on the App Store